www.pogodaiklimat.ru

Погода и климат >> Архив погоды >> Иран >> Сафиабад


ПОГОДА в Сафиабаде

  • Прогноз погоды в Сафиабаде
  • Монитор погоды в Сафиабаде

АРХИВ ПОГОДЫ в Сафиабаде

Время (UTC), дата Ветер
(напр.,м/с)
 
Видим.   Явления Облачность Т
(С)
Тd
(С)
f
(%)
Тe
(С)
Тes
(С)
Комфортность P
(гПа)
Po
(гПа)
Тmin
(С)
Tmax
(С)
R
(мм)
R24
(мм)
S
(см)
18 16.09 В 1 10 км ясно +30.5 +13.2 35 +32 +32 жарко 1006.7 997.5
21 16.09 С 2 10 км ясно +27.8 +12.4 39 +29 +29 жарко 1006.0 996.9
00 17.09 С 3 10 км ясно +28.8 +7.5 26 +28 +28 жарко 1004.7 995.6
03 17.09 штиль 0 10 км ясно +25.7 +9.5 36 +26 +26 жарко 1006.1 996.8 +24.1
06 17.09 штиль 0 10 км ясно +38.6 +11.6 20 +38 +50 очень
жарко
1006.7 997.6
09 17.09 Ю 3 10 км ясно +45.0 +9.5 12 +43 +56 опасность
перегрева
1005.0 995.9
12 17.09 ЮЗ 4 10 км ясно +46.2 +6.7 10 +44 +49 опасность
перегрева
1003.0 994.0
15 17.09 ЮЗ 3 10 км 3/0
[Ci fib]
+40.1 +14.3 22 +41 +41 опасность
перегрева
1002.7 993.5 +46.8
18 17.09 З 5 10 км ясно +36.6 +7.9 17 +35 +35 очень
жарко
1003.8 994.7
21 17.09 СЗ 3 10 км ясно +30.2 +12.2 33 +31 +31 жарко 1004.0 995.0
00 18.09 СЗ 5 10 км ясно +27.5 +11.8 38 +29 +29 жарко 1003.4 994.3
03 18.09 штиль 0 10 км 3/0
[Ci sp]
+25.7 +13.8 48 +28 +28 жарко 1004.9 995.7 +25.7
06 18.09 Ю 2 10 км 1/0
[Ci fib]
+36.5 +13.4 25 +37 +46 очень
жарко
1006.4 997.3
09 18.09 штиль 0 10 км ясно +42.5 +13.9 19 +43 +64 опасность
перегрева
1005.6 996.5
12 18.09 З 3 10 км 1/0
[Ci fib]
+46.4 +4.7 8 +43 +49 опасность
перегрева
1003.6 994.5
15 18.09 З 3 10 км 1/0
[Ci fib]
+39.9 +11.0 18 +39 +39 очень
жарко
1003.9 994.7 +47.3
18 18.09 З 5 10 км ясно +34.5 +10.2 23 +34 +34 очень
жарко
1005.3 996.2
21 18.09 СЗ 4 10 км ясно +32.1 +9.7 25 +31 +31 жарко 1005.2 996.1
00 19.09 СЗ 5 10 км ясно +32.0 +8.1 23 +31 +31 жарко 1004.7 995.7
03 19.09 З 3 10 км ясно +29.0 +10.2 31 +29 +29 жарко 1006.2 997.0 +27.3
06 19.09 штиль 0 10 км ясно +36.8 +12.6 23 +37 +48 очень
жарко
1007.3 998.1
09 19.09 Ю 4 10 км ясно +40.5 +13.0 20 +40 +51 опасность
солнечного
удара
1006.3 997.2
12 19.09 ЮВ 3 14 км ясно +43.5 -3.0 6 +40 +45 очень
жарко
1004.4 995.3
15 19.09 В 2 10 км ясно +36.1 +10.4 21 +35 +35 очень
жарко
1004.7 995.5 +43.9
18 19.09 С 3 10 км ясно +29.0 +7.2 25 +28 +28 жарко 1005.7 996.5
21 19.09 С 3 10 км ясно +26.5 +4.5 24 +25 +25 комфорт 1005.1 995.9
00 20.09 штиль 0 10 км ясно +24.1 +5.7 31 +24 +24 комфорт 1004.5 995.3
03 20.09 СВ 3 10 км ясно +22.4 +6.9 37 +23 +23 комфорт 1005.5 996.2 +22.0
06 20.09 В 3 10 км ясно +31.4 +11.3 29 +32 +39 жарко 1006.9 997.6
09 20.09 Ю 3 10 км ясно +36.3 +13.4 25 +37 +49 очень
жарко
1005.4 996.1
12 20.09 ЮВ 2 10 км ясно +40.0 +6.9 13 +37 +44 очень
жарко
1003.8 994.5
15 20.09 ЮВ 3 10 км ясно +34.3 +13.9 29 +35 +35 очень
жарко
1003.9 994.6 +40.3
18 20.09 С 2 10 км ясно +27.8 +12.3 38 +29 +29 жарко 1005.6 996.3
21 20.09 штиль 0 10 км ясно +25.6 +10.9 40 +27 +27 жарко 1004.8 995.5
00 21.09 С 2 10 км ясно +22.6 +12.8 54 +25 +25 комфорт 1003.9 994.6
03 21.09 штиль 0 10 км ясно +20.9 +11.7 56 +23 +23 комфорт 1004.7 995.3 +20.8
06 21.09 штиль 0 10 км ясно +32.2 +12.3 30 +33 +44 жарко 1005.8 996.5
09 21.09 штиль 0 10 км ясно +38.5 +11.7 20 +38 +59 опасность
солнечного
удара
1004.5 995.3
12 21.09 Ю 2 10 км ясно +40.1 +12.7 20 +40 +47 очень
жарко
1002.3 993.1
15 21.09 В 2 10 км ясно +35.7 +15.2 30 +37 +37 душно 1002.1 992.8 +40.4 666
18 21.09 В 2 10 км ясно +29.1 +15.4 43 +32 +32 душно 1003.5 994.3
21 21.09 СВ 3 10 км ясно +27.4 +14.5 45 +30 +30 жарко 1003.8 994.7
00 22.09 штиль 0 10 км ясно +24.7 +13.1 48 +27 +27 жарко 1003.7 994.5
03 22.09 В 2 7000 м мгла ясно +23.0 +15.7 63 +27 +27 душно 1005.6 996.3 +22.6
06 22.09 В 3 8000 м мгла ясно +31.4 +20.1 51 +38 +45 очень
душно
1006.9 997.6
09 22.09 ЮВ 2 8000 м мгла ясно +38.5 +17.7 30 +42 +57 опасность
перегрева
1005.7 996.5
12 22.09 ЮЗ 3 8000 м мгла ясно +40.2 +18.6 29 +44 +50 опасность
перегрева
1003.9 994.7
15 22.09 штиль 0 7000 м мгла ясно +35.6 +20.1 40 +41 +41 опасность
перегрева
1003.8 994.6 +40.3
18 22.09 ЮВ 2 8000 м мгла ясно +30.8 +19.4 51 +37 +37 очень
душно
1005.7 996.4
21 22.09 СВ 3 10 км ясно +28.3 +18.3 55 +33 +33 очень
душно
1005.9 996.7
00 23.09 С 2 10 км ясно +26.5 +17.5 58 +31 +31 душно 1005.4 996.3
03 23.09 штиль 0 8000 м мгла ясно +24.5 +16.5 61 +28 +28 душно 1006.6 997.3 +24.5
06 23.09 штиль 0 10 км ясно +33.3 +17.8 40 +37 +49 очень
душно
1007.7 998.5
09 23.09 Ю 3 10 км ясно +39.6 +17.4 27 +42 +55 опасность
перегрева
1006.3 997.2
12 23.09 штиль 0 10 км ясно +43.2 +12.1 16 +42 +51 опасность
перегрева
1004.5 995.4

 

Местоположение метеостанции Сафиабад (Иран): широта 32.27 долгота 48.42 высота над уровнем моря 83 м.

В архиве по умолчанию представлена погода в Сафиабаде за последнюю неделю. Архивные данные за месяц целиком и за предыдущие месяцы, начиная с января 2011 года, Вы можете получить, выбрав интересующий диапазон дат из раскрывающегося списка и нажав кнопку "Ввод!".


*Определитесь, кто Вы:
робот инопланетянин человек

Внимание! Время в таблицах - всемирное. Для получения местного времени необходимо прибавить поправку, которая равна 3.5 ч.

Смотрите также архив погоды в соседних городах и на ближайших метеорологических станциях:

Погода в Месджеде-Солеймане (Иран) (86 км)
Погода в Ахвазе (Иран) (107 км)
Погода в Амаре (Ирак) (127 км)
Погода в Хорремабаде (Иран) (135 км)
Погода в Али Аль-Гарби (Ирак) (161 км)
Погода в Элигудерзе (Иран) (172 км)
Погода в Басре (Ирак) (199 км)
Погода в Басре аэропорт (Ирак) (204 км)
Погода в Омидийе (Иран) (205 км)
Погода в Абадане (Иран) (212 км)

Пояснения к столбцам:

Ветер - указаны скорость ветра в м/с - средняя за 10 мин, порывы в срок и между сроками (в фигурных скобках) и направление, откуда дует ветер: С - северный, СВ - северо-восточный, В - восточный, ЮВ - юго-восточный, Ю - южный, ЮЗ - юго-западный, З - западный, СЗ - северо-западный.
Видимость - горизонтальная дальность видимости в метрах или километрах. При видимости от 1 до 10 км при отсутствии осадков обычно наблюдается дымка, при ухудшении видимости до 1 км и менее - туман. В сухую погоду видимость может ухудшаться дымом, пылью или мглою.
Явления - указаны атмосферные явления, наблюдавшиеся в срок или в последний час перед сроком; фигурными скобками обозначены явления, наблюдавшиеся между сроками (за 1-3 часа до срока); квадратными скобками обозначены град или гололедные отложения с указанием их диаметра в мм.
Облачность - указаны через наклонную черту общая и нижняя облачность в баллах и высота нижней границы облаков в метрах; квадратными скобками обозначены формы облаков: Ci - перистые, Cs - перисто-слоистые, Cc - перисто-кучевые, Ac - высококучевые, As - высокослоистые, Sc - слоисто-кучевые, Ns - слоисто-дождевые, Cu - кучевые, Cb - кучево-дождевые. Подробнее классификацию облаков см. в Атласе облаков (PDF).
T - Температура воздуха - температура, измеренная на высоте 2 м над землей.
Td - Температура точки росы - температура, при понижении до которой содержащийся в воздухе водяной пар достигнет насыщения.
f - Относительная влажность воздуха - влажноcть воздуха, измеренная на высоте 2 м над землей.
Te - Эффективная температура - температура, которую ощущает одетый по сезону человек в тени. Характеристика душности погоды. При расчете учитывается влияние влажности воздуха и скорости ветра на теплоощущения человека.
Tes - Эффективная температура на солнце - температура, которую ощущает человек, с поправкой на солнечный нагрев. Характеристика знойности погоды. Зависит от высоты солнца над горизонтом, облачности и скорости ветра. Ночью, в пасмурную погоду, а также при ветре 12 м/с и более поправка равна нулю.
P - Атмосферное давление - приведенное к уровню моря атмосферное давление.
Po - Атмосферное давление - измеренное на уровне метеостанции атмосферное давление.
Tmin - Минимальная температура - минимум температуры воздуха на высоте 2 м над землей.
Tmax - Максимальная температура - максимум температуры воздуха на высоте 2 м над землей.
R - Количество осадков - Количество выпавших осадков за период времени, мм. При наведении курсора мыши на число - период времени, за который выпало указанное количество осадков.
R24 - Количество осадков - Количество выпавших осадков за 24 часа, мм.
S - Снежный покров - Высота снежного покрова, см. При наведении курсора мыши на число - состояние снежного покрова и степень покрытия местности в баллах.